This is the latest recevied weather packets stored in our database for station/object AB1AU. If no packets are shown the sender has not sent any weather packets the latest 10 day(s).
| Time | Temp. | Humidity | Pressure | Rain* | Wind** | Luminosity | Snow |
|---|---|---|---|---|---|---|---|
| 1777551840 | 6.67° C | 96% | 1011.7 hPa | 4.83 mm | - | 32 W/m² | - |
| 1777551538 | 6.67° C | 95% | 1011.8 hPa | 11.94 mm | - | 27 W/m² | - |
| 1777551234 | 6.67° C | 95% | 1011.6 hPa | 16.26 mm | - | 25 W/m² | - |
| 1777550931 | 6.67° C | 95% | 1011.7 hPa | 16.76 mm | - | 23 W/m² | - |
| 1777550628 | 6.67° C | 96% | 1011.6 hPa | 13.72 mm | - | 23 W/m² | - |
| 1777550324 | 6.67° C | 95% | 1011.8 hPa | 6.1 mm | - | 30 W/m² | - |
| 1777550021 | 6.67° C | 95% | 1011.5 hPa | 4.32 mm | - | 23 W/m² | - |
| 1777549718 | 6.67° C | 95% | 1011.7 hPa | 6.1 mm | - | 18 W/m² | - |
| 1777549412 | 6.67° C | 95% | 1011.7 hPa | 7.87 mm | - | 21 W/m² | - |
| 1777549110 | 6.67° C | 95% | 1011.6 hPa | 8.89 mm | - | 18 W/m² | - |
| 1777548806 | 6.67° C | 95% | 1011.6 hPa | 8.89 mm | - | 13 W/m² | - |
| 1777548503 | 6.67° C | 96% | 1011.4 hPa | 7.87 mm | - | 9 W/m² | - |
| 1777548200 | 6.67° C | 95% | 1011.5 hPa | 6.1 mm | - | 12 W/m² | - |
| 1777547896 | 6.67° C | 95% | 1011.9 hPa | 6.1 mm | - | 13 W/m² | - |
| 1777547592 | 6.67° C | 95% | 1011.6 hPa | 4.32 mm | - | 11 W/m² | - |
| 1777547290 | 6.67° C | 95% | 1011.4 hPa | 6.1 mm | - | 8 W/m² | - |
| 1777546986 | 6.67° C | 95% | 1011.2 hPa | 4.83 mm | - | 8 W/m² | - |
| 1777546684 | 6.67° C | 95% | 1011.2 hPa | 1.78 mm | - | 7 W/m² | - |
| 1777546380 | 6.67° C | 96% | 1011.2 hPa | 0 mm | - | 11 W/m² | - |
| 1777546078 | 6.67° C | 95% | 1011 hPa | 0 mm | - | 11 W/m² | - |
| 1777545773 | 6.67° C | 95% | 1010.9 hPa | 1.27 mm | - | 10 W/m² | - |
| 1777545470 | 6.67° C | 95% | 1010.9 hPa | 1.27 mm | - | 11 W/m² | - |
| 1777545167 | 6.67° C | 95% | 1011.1 hPa | 1.78 mm | - | 14 W/m² | - |
| 1777544865 | 6.67° C | 95% | 1010.9 hPa | 3.05 mm | - | 11 W/m² | - |
| 1777544560 | 6.67° C | 95% | 1011.1 hPa | 0 mm | - | 7 W/m² | - |
* Rain latest hour (hover to see other rain measurements)
** Current wind speed in m/s (hover to see current wind gust speed)